• In France
  • List of Countries
  • For 7 days
  • Water Temperature
  • Satellite Maps
  • Weather Map
  • Weather Widgets
  • user-avatar
    Login

    Hourly Weather Dromore

    Today, 19 November, Sunday

    Time Temperature Precipitation Wind Pressure Humidity
    00:00 +2°C° 0 mm 3 mps 757 mmHg 85%
    01:00 +2°C° 0 mm 3 mps 757 mmHg 85%
    02:00 +2°C° 0 mm 3 mps 757 mmHg 85%
    03:00 +1°C° 0 mm 3 mps 757 mmHg 86%
    04:00 +2°C° 0 mm 2 mps 757 mmHg 85%
    05:00 +3°C° 0 mm 2 mps 757 mmHg 85%
    06:00 +3°C° 0 mm 2 mps 757 mmHg 84%
    07:00 +4°C° 0 mm 1 mps 757 mmHg 84%
    08:00 +4°C° 0 mm 1 mps 757 mmHg 85%
    09:00 +4°C° 0 mm 1 mps 757 mmHg 85%
    10:00 +4°C° 0 mm 2 mps 757 mmHg 81%
    11:00 +5°C° 0 mm 2 mps 757 mmHg 77%
    12:00 +6°C° 0 mm 2 mps 757 mmHg 75%
    13:00 +5°C° 0 mm 3 mps 756 mmHg 76%
    14:00 +5°C° 0 mm 3 mps 755 mmHg 78%
    15:00 +5°C° 0 mm 4 mps 755 mmHg 80%
    16:00 +5°C° 0 mm 4 mps 754 mmHg 84%
    17:00 +5°C° 0 mm 5 mps 754 mmHg 88%
    18:00 +5°C° 0 mm 5 mps 753 mmHg 91%
    19:00 +6°C° 0.7 mm 5 mps 752 mmHg 92%
    20:00 +7°C° 0.7 mm 6 mps 751 mmHg 93%
    21:00 +6°C° 0.7 mm 7 mps 750 mmHg 94%
    22:00 +8°C° 0.7 mm 7 mps 750 mmHg 94%
    23:00 +8°C° 0.7 mm 7 mps 749 mmHg 93%

    Tomorrow, 20 November, Monday

    Time Temperature Precipitation Wind Pressure Humidity
    00:00 +9°C° 0.7 mm 7 mps 748 mmHg 93%
    01:00 +9°C° 0.1 mm 7 mps 748 mmHg 93%
    02:00 +10°C° 0.1 mm 7 mps 747 mmHg 94%
    03:00 +10°C° 0.1 mm 7 mps 746 mmHg 94%
    04:00 +10°C° 0.2 mm 7 mps 746 mmHg 94%
    05:00 +10°C° 0.2 mm 6 mps 746 mmHg 94%
    06:00 +10°C° 0.2 mm 6 mps 746 mmHg 94%
    07:00 +10°C° 0.1 mm 6 mps 746 mmHg 93%
    08:00 +10°C° 0.1 mm 6 mps 746 mmHg 93%
    09:00 +10°C° 0.1 mm 6 mps 746 mmHg 92%
    10:00 +11°C° 0.2 mm 7 mps 746 mmHg 91%
    11:00 +11°C° 0.2 mm 7 mps 746 mmHg 90%
    12:00 +11°C° 0.2 mm 7 mps 746 mmHg 88%
    13:00 +11°C° 0.1 mm 6 mps 746 mmHg 89%
    14:00 +11°C° 0.1 mm 6 mps 746 mmHg 89%
    15:00 +12°C° 0.1 mm 5 mps 746 mmHg 89%
    16:00 +11°C° 0 mm 4 mps 746 mmHg 91%
    17:00 +11°C° 0 mm 4 mps 746 mmHg 93%
    18:00 +10°C° 0 mm 3 mps 746 mmHg 95%
    19:00 +10°C° 0.1 mm 3 mps 746 mmHg 95%
    20:00 +10°C° 0.1 mm 3 mps 746 mmHg 96%
    21:00 +10°C° 0.1 mm 3 mps 746 mmHg 97%
    22:00 +10°C° 0.6 mm 3 mps 746 mmHg 97%
    23:00 +11°C° 0.6 mm 3 mps 746 mmHg 97%

    Day after tomorrow, 21 November, Tuesday

    Time Temperature Precipitation Wind Pressure Humidity
    00:00 +11°C° 0.6 mm 3 mps 746 mmHg 97%
    01:00 +11°C° 0.2 mm 3 mps 746 mmHg 96%
    02:00 +12°C° 0.2 mm 4 mps 745 mmHg 96%
    03:00 +12°C° 0.2 mm 5 mps 745 mmHg 95%
    04:00 +12°C° 0.1 mm 5 mps 744 mmHg 95%
    05:00 +11°C° 0.1 mm 6 mps 744 mmHg 94%
    06:00 +11°C° 0.1 mm 6 mps 743 mmHg 94%
    07:00 +11°C° 0 mm 6 mps 743 mmHg 93%
    08:00 +10°C° 0 mm 6 mps 742 mmHg 92%
    09:00 +10°C° 0 mm 6 mps 742 mmHg 91%
    10:00 +10°C° 0.1 mm 7 mps 741 mmHg 91%
    11:00 +10°C° 0.1 mm 7 mps 741 mmHg 91%
    12:00 +11°C° 0.1 mm 7 mps 740 mmHg 90%
    13:00 +11°C° 0.6 mm 8 mps 739 mmHg 91%
    14:00 +11°C° 0.6 mm 8 mps 738 mmHg 91%
    15:00 +11°C° 0.6 mm 8 mps 737 mmHg 91%
    16:00 +12°C° 0.1 mm 8 mps 737 mmHg 92%
    17:00 +12°C° 0.1 mm 7 mps 736 mmHg 92%
    18:00 +12°C° 0.1 mm 7 mps 736 mmHg 92%
    19:00 +12°C° 0.2 mm 7 mps 736 mmHg 92%
    20:00 +12°C° 0.2 mm 7 mps 736 mmHg 92%
    21:00 +12°C° 0.2 mm 7 mps 735 mmHg 91%
    22:00 +11°C° 0.1 mm 6 mps 735 mmHg 92%
    23:00 +10°C° 0.1 mm 5 mps 735 mmHg 92%

    22 November, Wednesday

    Time Temperature Precipitation Wind Pressure Humidity
    00:00 +9°C° 0.1 mm 5 mps 735 mmHg 92%
    01:00 +8°C° 0.1 mm 4 mps 734 mmHg 93%
    02:00 +8°C° 0.1 mm 4 mps 734 mmHg 93%
    03:00 +8°C° 0.1 mm 4 mps 734 mmHg 94%
    04:00 +9°C° 1.1 mm 3 mps 733 mmHg 94%
    05:00 +9°C° 1.1 mm 3 mps 733 mmHg 94%
    06:00 +9°C° 1.1 mm 3 mps 732 mmHg 94%
    07:00 +9°C° 1.1 mm 3 mps 731 mmHg 95%
    08:00 +8°C° 1.1 mm 4 mps 731 mmHg 95%
    09:00 +8°C° 1.1 mm 5 mps 730 mmHg 95%
    10:00 +9°C° 1 mm 5 mps 730 mmHg 95%
    11:00 +9°C° 1 mm 5 mps 729 mmHg 95%
    12:00 +9°C° 1 mm 5 mps 729 mmHg 94%
    13:00 +10°C° 0.4 mm 5 mps 728 mmHg 94%
    14:00 +10°C° 0.4 mm 5 mps 727 mmHg 93%
    15:00 +12°C° 0.4 mm 5 mps 726 mmHg 93%
    16:00 +11°C° 0.4 mm 6 mps 726 mmHg 93%
    17:00 +10°C° 0.4 mm 6 mps 725 mmHg 93%
    18:00 +10°C° 0.4 mm 7 mps 725 mmHg 93%
    19:00 +10°C° 0.3 mm 7 mps 725 mmHg 92%
    20:00 +10°C° 0.3 mm 7 mps 725 mmHg 90%
    21:00 +9°C° 0.3 mm 8 mps 725 mmHg 89%
    22:00 +9°C° 0 mm 8 mps 727 mmHg 88%
    23:00 +9°C° 0 mm 8 mps 728 mmHg 87%

    23 November, Thursday

    Time Temperature Precipitation Wind Pressure Humidity
    00:00 +7°C° 0 mm 9 mps 729 mmHg 86%
    01:00 +6°C° 0 mm 8 mps 731 mmHg 84%
    02:00 +5°C° 0 mm 8 mps 732 mmHg 82%
    03:00 +4°C° 0 mm 7 mps 733 mmHg 80%
    04:00 +4°C° 0 mm 7 mps 734 mmHg 82%
    05:00 +4°C° 0 mm 7 mps 735 mmHg 83%
    06:00 +4°C° 0 mm 7 mps 735 mmHg 85%
    07:00 +4°C° 0.1 mm 7 mps 735 mmHg 84%
    08:00 +4°C° 0.1 mm 7 mps 735 mmHg 84%
    09:00 +5°C° 0.1 mm 7 mps 735 mmHg 84%
    10:00 +6°C° 0.3 mm 8 mps 734 mmHg 84%
    11:00 +8°C° 0.3 mm 9 mps 733 mmHg 85%
    12:00 +11°C° 0.3 mm 10 mps 732 mmHg 86%
    13:00 +10°C° 0.1 mm 9 mps 732 mmHg 85%
    14:00 +10°C° 0.1 mm 8 mps 733 mmHg 83%
    15:00 +10°C° 0.1 mm 7 mps 733 mmHg 82%
    16:00 +9°C° 0.1 mm 7 mps 733 mmHg 83%
    17:00 +9°C° 0.1 mm 8 mps 733 mmHg 85%
    18:00 +9°C° 0.1 mm 8 mps 733 mmHg 86%
    19:00 +7°C° 0 mm 9 mps 733 mmHg 84%
    20:00 +7°C° 0 mm 9 mps 733 mmHg 82%
    21:00 +6°C° 0 mm 9 mps 733 mmHg 80%
    22:00 +6°C° 0 mm 10 mps 733 mmHg 79%
    23:00 +6°C° 0 mm 10 mps 733 mmHg 78%

    24 November, Friday

    Time Temperature Precipitation Wind Pressure Humidity
    00:00 +6°C° 0 mm 11 mps 733 mmHg 77%
    01:00 +6°C° 0 mm 10 mps 733 mmHg 79%
    02:00 +5°C° 0 mm 9 mps 734 mmHg 81%
    03:00 +5°C° 0 mm 8 mps 735 mmHg 82%
    04:00 +5°C° 0 mm 8 mps 735 mmHg 84%
    05:00 +4°C° 0 mm 7 mps 736 mmHg 85%
    06:00 +4°C° 0 mm 7 mps 736 mmHg 86%
    07:00 +4°C° 0 mm 7 mps 737 mmHg 87%
    08:00 +4°C° 0 mm 7 mps 737 mmHg 87%
    09:00 +3°C° 0 mm 7 mps 738 mmHg 88%
    10:00 +4°C° 0 mm 6 mps 739 mmHg 84%
    11:00 +5°C° 0 mm 6 mps 739 mmHg 79%
    12:00 +7°C° 0 mm 6 mps 740 mmHg 75%
    13:00 +6°C° 0 mm 5 mps 740 mmHg 77%
    14:00 +6°C° 0 mm 4 mps 740 mmHg 78%
    15:00 +7°C° 0 mm 3 mps 741 mmHg 80%
    16:00 +6°C° 0 mm 2 mps 741 mmHg 83%
    17:00 +6°C° 0 mm 1 mps 741 mmHg 85%
    18:00 +5°C° 0 mm 1 mps 741 mmHg 88%
    19:00 +5°C° 0 mm 1 mps 741 mmHg 88%
    20:00 +5°C° 0 mm 1 mps 741 mmHg 88%
    21:00 +5°C° 0 mm 1 mps 741 mmHg 88%
    22:00 +4°C° 0 mm 2 mps 741 mmHg 87%
    23:00 +4°C° 0 mm 2 mps 740 mmHg 87%
    Show more